Time[GMT],current_speed[cm/s](2m),current_direction[angular_degrees](2m),temperature[C](2m),current_u[cm/s](2m),current_v[cm/s](2m)
2016-07-09 15:00,18.18,313.9,13.17,-13.11,12.60
2016-07-09 16:00,20.24,286.1,13.45,-19.45,5.61
2016-07-09 17:00,21.41,282.9,13.89,-20.87,4.79
2016-07-09 18:00,18.77,276.9,14.27,-18.63,2.27
2016-07-09 19:00,14.96,278.7,14.40,-14.79,2.26
2016-07-09 20:00,20.24,267.4,14.08,-20.22,-0.90
2016-07-09 21:00,34.61,247.8,13.26,-32.03,-13.10
2016-07-09 22:00,41.65,241.1,13.11,-36.45,-20.14
2016-07-09 23:00,32.26,260.4,14.02,-31.81,-5.37
2016-07-10 00:00,26.10,278.0,14.96,-25.85,3.63
2016-07-10 01:00,26.69,282.9,14.90,-26.02,5.97
2016-07-10 02:00,25.22,297.0,15.06,-22.48,11.44
2016-07-10 03:00,29.62,311.0,15.15,-22.34,19.45
2016-07-10 04:00,22.58,325.5,15.50,-12.81,18.60
2016-07-10 05:00,23.76,313.2,16.25,-17.33,16.25
2016-07-10 06:00,11.15,277.3,16.16,-11.06,1.41
2016-07-10 07:00,16.13,249.9,15.72,-15.15,-5.55
2016-07-10 08:00,17.30,240.0,15.78,-14.99,-8.65
2016-07-10 09:00,21.12,242.5,15.78,-18.73,-9.76
2016-07-10 10:00,23.76,246.3,15.65,-21.76,-9.53
2016-07-10 11:00,25.52,257.6,15.62,-24.92,-5.48
2016-07-10 12:00,27.28,257.2,15.75,-26.60,-6.02
2016-07-10 13:00,26.98,280.8,15.68,-26.51,5.06
2016-07-10 14:00,28.16,270.3,15.62,-28.16,0.13
2016-07-10 15:00,26.40,280.8,15.75,-25.93,4.95
2016-07-10 16:00,37.84,306.1,15.94,-30.56,22.30
2016-07-10 17:00,21.70,292.8,16.09,-20.01,8.40
2016-07-10 18:00,29.33,278.7,16.13,-28.99,4.43
2016-07-10 19:00,24.05,269.9,16.22,-24.05,-0.04
2016-07-10 20:00,28.74,275.5,16.35,-28.61,2.77
2016-07-10 21:00,26.69,285.4,16.44,-25.73,7.08
2016-07-10 22:00,29.33,314.6,16.54,-20.90,20.58
2016-07-10 23:00,11.44,280.5,16.57,-11.25,2.08
2016-07-11 00:00,3.23,94.8,16.54,3.21,-0.27
2016-07-11 01:00,16.72,145.4,16.54,9.48,-13.77
2016-07-11 02:00,17.89,145.8,16.50,10.06,-14.80
2016-07-11 03:00,31.38,158.1,16.41,11.71,-29.12
2016-07-11 04:00,28.16,166.2,16.09,6.72,-27.34
2016-07-11 05:00,27.57,182.7,15.84,-1.30,-27.54
2016-07-11 06:00,27.57,191.9,15.46,-5.66,-26.98
2016-07-11 07:00,33.44,207.3,15.12,-15.35,-29.71
2016-07-11 08:00,37.54,207.0,14.87,-17.03,-33.46
2016-07-11 09:00,42.24,195.4,14.77,-11.19,-40.73
2016-07-11 10:00,35.49,214.7,14.08,-20.21,-29.18
2016-07-11 11:00,41.06,222.8,14.49,-27.89,-30.13
2016-07-11 12:00,26.69,253.4,14.90,-25.58,-7.63
2016-07-11 13:00,17.60,283.3,15.34,-17.13,4.04
2016-07-11 14:00,12.32,321.2,15.62,-7.71,9.61
2016-07-11 15:00,8.21,310.7,15.75,-6.23,5.35
2016-07-11 16:00,8.21,318.8,15.94,-5.41,6.18
2016-07-11 17:00,4.11,11.8,16.19,0.84,4.02
2016-07-11 18:00,9.97,228.1,16.09,-7.42,-6.66
2016-07-11 19:00,12.91,260.1,16.25,-12.71,-2.23
2016-07-11 20:00,17.01,223.5,16.19,-11.71,-12.34
2016-07-11 21:00,12.91,311.0,16.28,-9.73,8.47
2016-07-11 22:00,8.51,212.9,16.31,-4.63,-7.14
2016-07-11 23:00,19.65,195.4,17.45,-5.21,-18.95
2016-07-12 00:00,18.18,211.9,16.91,-9.61,-15.44
2016-07-12 01:00,21.12,224.9,15.62,-14.91,-14.96
2016-07-12 02:00,19.65,246.0,15.21,-17.95,-7.99
2016-07-12 03:00,14.37,286.4,15.24,-13.78,4.07
2016-07-12 04:00,5.28,248.1,15.87,-4.90,-1.97
2016-07-12 05:00,13.49,265.3,15.40,-13.45,-1.10
2016-07-12 06:00,5.28,333.5,15.94,-2.35,4.73
2016-07-12 07:00,7.33,231.9,15.43,-5.77,-4.52
2016-07-12 08:00,12.61,231.6,15.24,-9.88,-7.84
2016-07-12 09:00,17.60,225.6,15.09,-12.57,-12.31
2016-07-12 10:00,19.36,231.9,14.55,-15.24,-11.94
2016-07-12 11:00,15.25,274.8,14.43,-15.20,1.28
2016-07-12 12:00,6.45,285.0,14.40,-6.23,1.67
2016-07-12 13:00,5.28,236.2,14.49,-4.38,-2.94
2016-07-12 14:00,6.75,215.8,14.58,-3.94,-5.47
2016-07-12 15:00,8.21,202.4,14.52,-3.13,-7.59
2016-07-12 16:00,4.69,195.7,14.96,-1.27,-4.52
2016-07-12 17:00,8.21,167.9,15.09,1.72,-8.03
2016-07-12 18:00,4.11,195.4,15.02,-1.09,-3.96
2016-07-12 19:00,9.68,227.7,14.99,-7.16,-6.51
2016-07-12 20:00,14.08,213.3,14.99,-7.73,-11.77
2016-07-12 21:00,14.96,220.3,15.28,-9.68,-11.40
2016-07-12 22:00,19.94,214.4,15.12,-11.25,-16.47
2016-07-12 23:00,19.36,223.8,14.93,-13.41,-13.96
2016-07-13 00:00,20.82,218.6,14.77,-12.98,-16.28
2016-07-13 01:00,21.12,224.5,14.90,-14.81,-15.05
2016-07-13 02:00,10.27,266.7,14.65,-10.25,-0.58
2016-07-13 03:00,7.04,321.9,14.68,-4.34,5.54
2016-07-13 04:00,7.33,202.0,14.62,-2.75,-6.80
2016-07-13 05:00,12.91,207.7,14.40,-5.99,-11.43
2016-07-13 06:00,12.03,190.4,14.24,-2.18,-11.83
2016-07-13 07:00,12.32,209.4,14.40,-6.05,-10.73
2016-07-13 08:00,15.25,253.4,14.27,-14.61,-4.36
2016-07-13 09:00,19.94,234.7,14.21,-16.29,-11.51
2016-07-13 10:00,19.06,230.5,13.99,-14.72,-12.12
2016-07-13 11:00,19.65,230.5,13.77,-15.17,-12.49
2016-07-13 12:00,17.60,225.3,13.33,-12.50,-12.39
2016-07-13 13:00,27.86,212.6,14.08,-15.01,-23.48
2016-07-13 14:00,24.93,241.1,14.27,-21.82,-12.06
2016-07-13 15:00,26.10,283.6,14.33,-25.37,6.15
2016-07-13 16:00,19.94,260.1,13.96,-19.65,-3.44
2016-07-13 17:00,10.27,258.3,14.27,-10.05,-2.08
2016-07-13 18:00,8.21,325.8,14.96,-4.61,6.79
2016-07-13 19:00,6.16,288.2,14.90,-5.85,1.92
2016-07-13 20:00,5.28,299.8,15.28,-4.58,2.62
2016-07-13 21:00,9.39,270.3,15.46,-9.39,0.04
2016-07-13 22:00,9.97,214.7,15.46,-5.68,-8.20
2016-07-13 23:00,14.96,202.8,15.53,-5.78,-13.79
2016-07-14 00:00,5.28,239.7,15.53,-4.56,-2.67
2016-07-14 01:00,14.66,269.2,15.34,-14.66,-0.20
2016-07-14 02:00,6.45,216.8,15.09,-3.87,-5.17
2016-07-14 03:00,4.40,67.4,14.84,4.06,1.69
2016-07-14 04:00,15.84,88.1,14.62,15.83,0.52
2016-07-14 05:00,8.51,96.2,14.40,8.46,-0.92
2016-07-14 06:00,12.03,93.8,14.33,12.00,-0.79
2016-07-14 07:00,10.27,86.0,14.43,10.24,0.71
2016-07-14 08:00,10.85,115.6,14.21,9.79,-4.68
2016-07-14 09:00,4.11,157.0,14.11,1.60,-3.78
2016-07-14 10:00,15.54,202.8,13.86,-6.01,-14.34
2016-07-14 11:00,17.89,206.6,13.80,-8.02,-16.00
2016-07-14 12:00,26.69,186.2,14.11,-2.89,-26.53
2016-07-14 13:00,23.17,179.9,13.89,0.04,-23.17
2016-07-14 14:00,20.82,158.8,14.77,7.53,-19.41
2016-07-14 15:00,22.58,177.8,15.15,0.87,-22.57
2016-07-14 16:00,8.80,177.8,15.24,0.34,-8.79
2016-07-14 17:00,2.35,79.7,15.06,2.31,0.42
2016-07-14 18:00,4.40,63.5,14.90,3.94,1.96
2016-07-14 19:00,11.73,24.5,14.99,4.86,10.68
2016-07-14 20:00,12.32,10.8,15.02,2.30,12.10
2016-07-14 21:00,13.20,21.3,14.87,4.80,12.29
2016-07-14 22:00,17.60,11.5,14.96,3.50,17.25
2016-07-14 23:00,5.87,26.2,14.90,2.59,5.26
2016-07-15 00:00,13.20,57.9,14.84,11.18,7.02
2016-07-15 01:00,6.16,104.0,14.80,5.98,-1.48
2016-07-15 02:00,14.96,100.8,14.71,14.69,-2.80
2016-07-15 03:00,25.81,129.3,15.02,19.98,-16.34
2016-07-15 04:00,21.70,127.5,14.84,17.22,-13.21
2016-07-15 05:00,22.88,147.5,14.52,12.28,-19.31
2016-07-15 06:00,22.00,160.6,14.65,7.32,-20.74
2016-07-15 07:00,29.33,171.8,14.58,4.18,-29.03
2016-07-15 08:00,27.86,190.4,14.62,-5.05,-27.40
2016-07-15 09:00,26.69,223.1,14.74,-18.25,-19.47
2016-07-15 10:00,27.57,219.3,14.84,-17.45,-21.34
2016-07-15 11:00,34.32,226.0,14.93,-24.67,-23.86
2016-07-15 12:00,34.90,233.0,14.84,-27.87,-21.01
2016-07-15 13:00,41.65,262.5,14.71,-41.29,-5.42
2016-07-15 14:00,39.60,273.4,14.87,-39.52,2.36
2016-07-15 15:00,31.97,278.3,15.09,-31.63,4.64
2016-07-15 16:00,26.10,297.7,15.34,-23.12,12.13
2016-07-15 17:00,12.03,329.3,15.65,-6.13,10.34
2016-07-15 18:00,12.91,31.5,15.97,6.75,11.00
2016-07-15 19:00,11.73,46.3,16.03,8.48,8.11
2016-07-15 20:00,17.01,58.6,16.13,14.52,8.86
2016-07-15 21:00,16.72,87.4,15.78,16.70,0.75
2016-07-15 22:00,15.25,121.9,15.75,12.95,-8.06
2016-07-15 23:00,18.48,134.9,15.75,13.09,-13.04
2016-07-16 00:00,21.70,185.5,15.91,-2.09,-21.60
2016-07-16 01:00,25.52,210.1,15.72,-12.81,-22.07
2016-07-16 02:00,32.56,214.4,15.21,-18.37,-26.88
2016-07-16 03:00,41.94,214.4,15.50,-23.67,-34.63
2016-07-16 04:00,49.27,212.9,15.68,-26.80,-41.35
2016-07-16 05:00,41.94,247.1,14.93,-38.62,-16.35
2016-07-16 06:00,34.90,266.0,15.12,-34.82,-2.41
2016-07-16 07:00,38.13,267.8,15.50,-38.10,-1.47
2016-07-16 08:00,37.25,286.1,15.68,-35.79,10.32
2016-07-16 09:00,35.20,299.1,15.28,-30.76,17.11
2016-07-16 10:00,26.98,325.8,15.50,-15.16,22.32
2016-07-16 11:00,18.18,325.1,15.34,-10.40,14.92
2016-07-16 12:00,9.39,332.8,15.62,-4.28,8.35
2016-07-16 13:00,3.52,351.4,15.72,-0.52,3.48
2016-07-16 14:00,9.68,143.3,16.13,5.78,-7.76
2016-07-16 15:00,29.33,161.6,16.16,9.25,-27.83
2016-07-16 16:00,26.10,180.6,16.41,-0.27,-26.10
2016-07-16 17:00,27.57,221.0,15.72,-18.10,-20.80
2016-07-16 18:00,19.94,240.0,15.87,-17.28,-9.97
2016-07-16 19:00,12.61,227.0,16.22,-9.23,-8.60
2016-07-16 20:00,15.54,194.3,17.23,-3.84,-15.06
2016-07-16 21:00,7.92,243.9,17.33,-7.11,-3.49
2016-07-16 22:00,6.45,284.3,17.14,-6.25,1.60
2016-07-16 23:00,12.61,232.6,16.98,-10.02,-7.65
2016-07-17 00:00,13.79,224.9,16.95,-9.73,-9.76
2016-07-17 01:00,17.01,236.9,16.76,-14.24,-9.30
2016-07-17 02:00,22.88,248.5,16.54,-21.28,-8.40
2016-07-17 03:00,28.16,243.5,16.82,-25.21,-12.55
2016-07-17 04:00,24.34,239.7,16.82,-21.01,-12.29
2016-07-17 05:00,22.00,266.4,16.85,-21.95,-1.39
2016-07-17 06:00,19.36,251.3,16.79,-18.33,-6.22
2016-07-17 07:00,17.89,273.1,16.72,-17.87,0.96
2016-07-17 08:00,15.54,292.1,16.72,-14.41,5.84
2016-07-17 09:00,6.45,283.3,16.57,-6.28,1.48
2016-07-17 10:00,11.44,236.2,15.72,-9.50,-6.37
2016-07-17 11:00,29.04,296.6,16.57,-25.96,13.01
2016-07-17 12:00,25.81,282.6,16.60,-25.19,5.61
2016-07-17 13:00,12.61,253.7,16.19,-12.11,-3.53
2016-07-17 14:00,17.60,243.9,16.47,-15.80,-7.75
2016-07-17 15:00,24.93,237.9,15.68,-21.12,-13.24
2016-07-17 16:00,31.09,249.5,16.95,-29.12,-10.88
2016-07-17 17:00,33.14,259.0,17.23,-32.53,-6.32
2016-07-17 18:00,28.74,279.4,17.36,-28.36,4.69
2016-07-17 19:00,27.28,299.8,17.67,-23.67,13.55
2016-07-17 20:00,22.58,324.4,17.67,-13.15,18.36
2016-07-17 21:00,19.06,338.5,17.93,-7.00,17.73
2016-07-17 22:00,7.04,310.3,17.23,-5.37,4.56
2016-07-17 23:00,7.63,292.8,16.79,-7.03,2.95
2016-07-18 00:00,15.25,254.4,16.19,-14.69,-4.09
2016-07-18 01:00,22.29,236.9,16.38,-18.66,-12.19
2016-07-18 02:00,31.38,250.2,15.72,-29.53,-10.62
2016-07-18 03:00,32.85,247.8,15.43,-30.40,-12.44
2016-07-18 04:00,37.25,244.9,16.03,-33.74,-15.78
2016-07-18 05:00,36.96,243.5,16.85,-33.08,-16.47
2016-07-18 06:00,42.82,236.5,16.95,-35.71,-23.63
2016-07-18 07:00,34.61,245.6,16.57,-31.53,-14.27
2016-07-18 08:00,28.45,287.1,16.50,-27.19,8.38
2016-07-18 09:00,27.28,329.0,16.50,-14.06,23.37
2016-07-18 10:00,17.01,345.5,15.02,-4.27,16.47
2016-07-18 11:00,11.73,354.6,15.91,-1.10,11.68
2016-07-18 12:00,6.45,353.2,15.31,-0.76,6.41
2016-07-18 13:00,5.87,231.2,15.18,-4.57,-3.67
2016-07-18 14:00,18.18,212.6,16.09,-9.80,-15.32
2016-07-18 15:00,23.76,225.6,16.69,-16.98,-16.62
2016-07-18 16:00,22.00,249.2,16.54,-20.56,-7.83
2016-07-18 17:00,13.20,270.3,16.54,-13.20,0.06
2016-07-18 18:00,4.69,245.6,16.54,-4.28,-1.94
2016-07-18 19:00,18.77,10.4,16.95,3.40,18.46
2016-07-18 20:00,14.08,43.1,16.47,9.62,10.28
2016-07-18 21:00,11.73,84.3,16.13,11.67,1.17
2016-07-18 22:00,11.73,47.7,15.97,8.68,7.90
2016-07-18 23:00,17.89,55.8,15.87,14.79,10.06
2016-07-19 00:00,12.91,90.9,15.97,12.90,-0.21
2016-07-19 01:00,11.15,133.1,16.00,8.13,-7.62
2016-07-19 02:00,22.29,164.1,16.19,6.12,-21.44
2016-07-19 03:00,32.56,184.1,16.35,-2.34,-32.47
2016-07-19 04:00,38.72,185.9,16.41,-3.96,-38.51
2016-07-19 05:00,47.22,186.2,16.69,-5.12,-46.94
2016-07-19 06:00,49.57,192.9,16.66,-11.07,-48.32
2016-07-19 07:00,45.46,204.5,16.19,-18.86,-41.37
2016-07-19 08:00,44.58,210.1,15.97,-22.38,-38.56
2016-07-19 09:00,39.89,254.1,15.56,-38.36,-10.94
2016-07-19 10:00,38.72,275.9,16.00,-38.51,3.97
2016-07-19 11:00,44.87,291.0,16.06,-41.89,16.08
2016-07-19 12:00,38.13,290.3,15.78,-35.76,13.23
2016-07-19 13:00,32.56,292.1,15.72,-30.17,12.23
2016-07-19 14:00,25.22,283.3,15.43,-24.55,5.79
2016-07-19 15:00,24.64,265.0,15.50,-24.54,-2.15
2016-07-19 16:00,32.56,263.2,15.78,-32.33,-3.84
2016-07-19 17:00,32.56,266.7,15.78,-32.50,-1.85
2016-07-19 18:00,24.05,266.4,15.94,-24.00,-1.51
2016-07-19 19:00,24.64,261.1,15.72,-24.34,-3.81
2016-07-19 20:00,16.42,268.1,15.68,-16.42,-0.53
2016-07-19 21:00,9.09,265.7,15.72,-9.07,-0.68
2016-07-19 22:00,11.73,154.6,16.47,5.04,-10.60
2016-07-19 23:00,7.92,237.2,16.09,-6.66,-4.29
2016-07-20 00:00,20.53,215.8,16.35,-12.00,-16.66
2016-07-20 01:00,31.38,229.1,16.25,-23.73,-20.54
2016-07-20 02:00,37.25,220.7,15.84,-24.28,-28.25
2016-07-20 03:00,30.80,215.1,15.56,-17.69,-25.21
2016-07-20 04:00,34.61,223.8,15.78,-23.97,-24.96
2016-07-20 05:00,32.26,216.5,15.91,-19.17,-25.95
2016-07-20 06:00,29.33,228.1,15.62,-21.82,-19.60
2016-07-20 07:00,30.50,239.7,15.46,-26.33,-15.40
2016-07-20 08:00,34.02,251.6,15.34,-32.29,-10.73
2016-07-20 09:00,29.62,266.7,15.56,-29.58,-1.68
2016-07-20 10:00,13.49,283.6,15.56,-13.11,3.18
2016-07-20 11:00,6.75,279.4,15.53,-6.66,1.10
2016-07-20 12:00,4.69,229.1,15.50,-3.55,-3.07
2016-07-20 13:00,6.75,209.8,15.53,-3.35,-5.85
2016-07-20 14:00,14.66,210.1,15.62,-7.36,-12.68
2016-07-20 15:00,19.94,192.6,15.75,-4.33,-19.47
2016-07-20 16:00,26.98,187.3,15.91,-3.42,-26.77
2016-07-20 17:00,29.62,191.5,15.87,-5.91,-29.03
2016-07-20 18:00,28.74,190.1,15.97,-5.04,-28.30
2016-07-20 19:00,30.21,187.6,16.00,-4.01,-29.94
2016-07-20 20:00,21.70,183.1,15.87,-1.16,-21.67
2016-07-20 21:00,12.91,197.8,15.78,-3.95,-12.29
2016-07-20 22:00,11.15,202.4,15.78,-4.25,-10.30
2016-07-20 23:00,11.44,209.4,15.62,-5.62,-9.96
2016-07-21 00:00,8.21,238.3,15.46,-6.98,-4.32
2016-07-21 01:00,13.20,278.0,15.37,-13.07,1.84
2016-07-21 02:00,21.12,259.4,15.43,-20.75,-3.90
2016-07-21 03:00,24.34,253.7,15.40,-23.37,-6.82
2016-07-21 04:00,26.69,261.8,15.75,-26.42,-3.80
2016-07-21 05:00,31.68,249.5,15.84,-29.67,-11.09
2016-07-21 06:00,32.85,244.2,15.37,-29.58,-14.28
2016-07-21 07:00,25.81,256.9,15.31,-25.14,-5.85
2016-07-21 08:00,29.62,275.9,15.21,-29.47,3.04
2016-07-21 09:00,21.41,286.4,15.12,-20.54,6.06
2016-07-21 10:00,5.87,29.1,15.28,2.85,5.13
2016-07-21 11:00,12.61,45.2,15.37,8.95,8.88
2016-07-21 12:00,13.20,70.2,15.40,12.42,4.47
2016-07-21 13:00,4.69,115.2,15.40,4.25,-2.00
2016-07-21 14:00,11.15,186.2,15.40,-1.21,-11.08
2016-07-21 15:00,15.54,219.3,15.46,-9.84,-12.03
2016-07-21 16:00,28.16,212.2,15.50,-15.02,-23.81
2016-07-21 17:00,33.44,206.3,16.19,-14.80,-29.98
2016-07-21 18:00,35.20,210.8,16.22,-18.04,-30.22
2016-07-21 19:00,32.26,205.2,16.41,-13.74,-29.19
2016-07-21 20:00,36.96,219.6,14.21,-23.57,-28.46
2016-07-21 21:00,29.62,241.1,12.98,-25.93,-14.33
2016-07-21 22:00,23.46,284.7,16.09,-22.70,5.94
2016-07-21 23:00,13.49,271.0,15.65,-13.49,0.23
2016-07-22 00:00,17.89,340.6,16.41,-5.95,16.87
2016-07-22 01:00,20.82,1.6,16.25,0.59,20.82
2016-07-22 02:00,13.49,21.7,16.28,4.98,12.54
2016-07-22 03:00,14.66,43.1,16.25,10.02,10.70
2016-07-22 04:00,1.47,39.3,16.09,0.93,1.14
2016-07-22 05:00,2.35,18.2,16.03,0.73,2.23
2016-07-22 06:00,17.89,101.8,15.87,17.51,-3.67
2016-07-22 07:00,26.10,167.2,15.65,5.77,-25.46
2016-07-22 08:00,24.64,149.0,15.53,12.71,-21.11
2016-07-22 09:00,26.69,157.0,15.65,10.41,-24.58
2016-07-22 10:00,22.58,131.4,15.84,16.95,-14.93
2016-07-22 11:00,19.36,141.9,15.84,11.94,-15.24
2016-07-22 12:00,15.25,98.0,16.00,15.10,-2.12
2016-07-22 13:00,9.68,54.7,16.06,7.90,5.59
2016-07-22 14:00,7.33,94.1,16.16,7.31,-0.52
2016-07-22 15:00,8.21,66.0,16.16,7.50,3.34
2016-07-22 16:00,9.09,111.3,16.03,8.47,-3.31
2016-07-22 17:00,17.89,156.3,16.28,7.18,-16.39
2016-07-22 18:00,17.01,157.0,16.54,6.64,-15.66
2016-07-22 19:00,18.48,179.5,16.63,0.15,-18.48
2016-07-22 20:00,14.37,131.7,16.95,10.73,-9.57
2016-07-22 21:00,9.68,103.6,17.07,9.41,-2.28
2016-07-22 22:00,19.65,150.4,17.20,9.72,-17.08
2016-07-22 23:00,11.44,125.7,17.07,9.28,-6.68
2016-07-23 00:00,10.56,172.2,17.04,1.44,-10.46
2016-07-23 01:00,12.32,140.5,16.95,7.83,-9.51
2016-07-23 02:00,4.40,148.3,16.88,2.31,-3.74
2016-07-23 03:00,8.80,161.6,16.85,2.78,-8.35
2016-07-23 04:00,13.20,161.3,16.76,4.24,-12.50
2016-07-23 05:00,22.88,203.5,16.57,-9.11,-20.99
2016-07-23 06:00,29.04,211.5,16.44,-15.19,-24.75
2016-07-23 07:00,37.25,209.4,16.28,-18.30,-32.44
2016-07-23 08:00,38.72,220.7,15.91,-25.24,-29.36
2016-07-23 09:00,35.49,220.7,15.72,-23.13,-26.91
2016-07-23 10:00,30.50,236.2,15.68,-25.33,-16.99
2016-07-23 11:00,17.60,225.6,16.06,-12.57,-12.31
2016-07-23 12:00,8.80,273.4,16.16,-8.78,0.53
2016-07-23 13:00,5.57,298.4,16.22,-4.90,2.65
2016-07-23 14:00,9.68,299.8,16.09,-8.40,4.81
2016-07-23 15:00,13.49,310.3,15.94,-10.28,8.73
2016-07-23 16:00,21.41,312.1,15.91,-15.89,14.35
2016-07-23 17:00,13.20,300.5,16.22,-11.37,6.70
2016-07-23 18:00,12.91,258.0,15.97,-12.62,-2.69
2016-07-23 19:00,14.08,221.7,16.41,-9.37,-10.51
2016-07-23 20:00,24.34,205.6,15.53,-10.50,-21.96
2016-07-23 21:00,29.04,207.3,15.62,-13.33,-25.80
2016-07-23 22:00,18.77,149.3,16.16,9.58,-16.14
2016-07-23 23:00,24.64,155.3,16.31,10.30,-22.38
2016-07-24 00:00,26.69,160.9,16.41,8.73,-25.22
2016-07-24 01:00,24.05,188.0,16.50,-3.34,-23.82
2016-07-24 02:00,24.93,194.0,16.47,-6.01,-24.19
2016-07-24 03:00,18.48,206.6,16.47,-8.28,-16.52
2016-07-24 04:00,19.36,220.0,16.22,-12.44,-14.83
2016-07-24 05:00,30.21,217.5,16.22,-18.40,-23.96
2016-07-24 06:00,35.49,229.1,16.28,-26.83,-23.23
2016-07-24 07:00,37.54,237.2,15.65,-31.56,-20.33
2016-07-24 08:00,37.25,238.3,15.62,-31.68,-19.59
2016-07-24 09:00,41.94,245.6,15.46,-38.21,-17.30
2016-07-24 10:00,35.78,263.9,15.34,-35.58,-3.78
2016-07-24 11:00,33.44,253.7,15.53,-32.10,-9.37
2016-07-24 12:00,22.88,294.5,15.59,-20.81,9.49
2016-07-24 13:00,14.37,306.8,15.59,-11.50,8.61
2016-07-24 14:00,13.49,345.5,15.59,-3.39,13.06
2016-07-24 15:00,7.92,6.2,15.56,0.86,7.87
2016-07-24 16:00,2.93,329.7,15.68,-1.48,2.53
2016-07-24 17:00,7.63,198.9,15.68,-2.47,-7.22
2016-07-24 18:00,18.77,219.3,15.75,-11.88,-14.53
2016-07-24 19:00,19.65,212.9,16.09,-10.69,-16.49
2016-07-24 20:00,29.04,211.9,16.09,-15.34,-24.65
2016-07-24 21:00,19.36,199.6,16.72,-6.49,-18.24
2016-07-24 22:00,33.14,212.9,16.19,-18.02,-27.81
2016-07-24 23:00,35.49,204.9,15.62,-14.92,-32.20
2016-07-25 00:00,21.12,186.6,16.28,-2.42,-20.98
2016-07-25 01:00,27.28,201.7,16.63,-10.08,-25.34
2016-07-25 02:00,19.06,197.8,16.35,-5.84,-18.15
2016-07-25 03:00,6.16,181.7,16.22,-0.18,-6.16
2016-07-25 04:00,6.16,215.4,16.06,-3.57,-5.02
2016-07-25 05:00,10.56,227.0,15.75,-7.72,-7.20
2016-07-25 06:00,11.73,209.4,15.53,-5.76,-10.22
2016-07-25 07:00,24.64,234.7,15.56,-20.12,-14.22
2016-07-25 08:00,25.52,232.3,15.72,-20.19,-15.61
2016-07-25 09:00,33.44,228.4,15.65,-25.01,-22.19
2016-07-25 10:00,34.02,241.1,15.84,-29.78,-16.46
2016-07-25 11:00,30.21,264.6,15.91,-30.08,-2.83
2016-07-25 12:00,24.05,274.5,15.75,-23.98,1.88
2016-07-25 13:00,15.84,282.2,15.87,-15.48,3.35
2016-07-25 14:00,11.73,335.7,15.97,-4.84,10.69
2016-07-25 15:00,6.75,119.1,16.03,5.90,-3.28
2016-07-25 16:00,5.87,259.0,16.06,-5.76,-1.12
2016-07-25 17:00,15.84,219.6,16.13,-10.10,-12.20
2016-07-25 18:00,20.53,228.8,16.22,-15.44,-13.53
2016-07-25 19:00,22.88,227.0,16.41,-16.73,-15.60
2016-07-25 20:00,25.52,232.3,16.95,-20.19,-15.61
2016-07-25 21:00,22.58,222.4,17.23,-15.24,-16.67
2016-07-25 22:00,34.02,248.5,16.44,-31.65,-12.49
2016-07-25 23:00,40.77,251.6,15.78,-38.69,-12.85
2016-07-26 00:00,34.32,266.4,16.00,-34.25,-2.16
2016-07-26 01:00,15.84,299.1,16.41,-13.84,7.70
2016-07-26 02:00,12.61,295.6,16.09,-11.38,5.44
2016-07-26 03:00,18.18,332.8,16.63,-8.30,16.18
2016-07-26 04:00,15.84,349.0,16.98,-3.03,15.55
2016-07-26 05:00,7.92,300.8,16.98,-6.80,4.06
2016-07-26 06:00,14.08,289.6,16.85,-13.26,4.72
2016-07-26 07:00,10.85,241.1,17.10,-9.50,-5.25
2016-07-26 08:00,14.96,217.5,17.07,-9.11,-11.86
2016-07-26 09:00,25.22,213.3,17.17,-13.85,-21.08
2016-07-26 10:00,27.57,215.8,16.98,-16.11,-22.37
2016-07-26 11:00,32.56,223.1,16.19,-22.26,-23.75
2016-07-26 12:00,29.04,228.4,16.00,-21.72,-19.27
2016-07-26 13:00,24.34,249.9,15.84,-22.86,-8.38
2016-07-26 14:00,29.33,240.4,15.94,-25.50,-14.50
2016-07-26 15:00,11.44,231.9,17.07,-9.01,-7.05
2016-07-26 16:00,19.36,262.9,16.57,-19.21,-2.40
2016-07-26 17:00,18.18,288.9,17.17,-17.21,5.89
2016-07-26 18:00,19.36,277.6,17.17,-19.19,2.57
2016-07-26 19:00,12.03,305.8,17.55,-9.76,7.03
2016-07-26 20:00,6.16,257.6,18.02,-6.02,-1.32
2016-07-26 21:00,16.42,198.2,18.09,-5.12,-15.60
2016-07-26 22:00,21.41,209.8,18.21,-10.63,-18.58
2016-07-26 23:00,24.05,229.1,18.43,-18.18,-15.74
2016-07-27 00:00,22.29,264.6,17.45,-22.19,-2.09
2016-07-27 01:00,12.03,235.4,17.93,-9.90,-6.82
2016-07-27 02:00,18.48,245.3,16.66,-16.79,-7.72
2016-07-27 03:00,11.15,221.0,17.80,-7.32,-8.41
2016-07-27 04:00,13.79,260.4,17.36,-13.59,-2.30
2016-07-27 05:00,21.70,250.6,17.01,-20.47,-7.22
2016-07-27 06:00,28.45,247.1,17.33,-26.20,-11.09
2016-07-27 07:00,25.22,250.9,17.61,-23.84,-8.25
2016-07-27 08:00,38.42,264.3,17.93,-38.23,-3.83
2016-07-27 09:00,35.20,250.9,17.42,-33.26,-11.51
2016-07-27 10:00,29.92,241.1,17.52,-26.18,-14.47
2016-07-27 11:00,26.10,269.2,17.42,-26.10,-0.36
2016-07-27 12:00,20.82,263.9,17.55,-20.71,-2.20
2016-07-27 13:00,20.82,295.6,17.61,-18.78,8.99
2016-07-27 14:00,8.80,281.9,17.77,-8.61,1.81
2016-07-27 15:00,7.92,287.8,17.67,-7.54,2.43
2016-07-27 16:00,4.40,273.4,17.90,-4.39,0.26
2016-07-27 17:00,7.33,223.1,17.74,-5.01,-5.35
2016-07-27 18:00,13.20,259.7,17.26,-12.99,-2.36
2016-07-27 19:00,18.18,261.5,17.36,-17.98,-2.70
2016-07-27 20:00,22.00,249.5,17.45,-20.61,-7.70
2016-07-27 21:00,16.42,246.7,18.40,-15.09,-6.50
2016-07-27 22:00,11.15,278.3,18.47,-11.03,1.62
2016-07-27 23:00,14.66,227.0,18.43,-10.73,-10.00
2016-07-28 00:00,22.00,220.7,17.77,-14.34,-16.68
2016-07-28 01:00,23.46,240.7,17.52,-20.47,-11.47
2016-07-28 02:00,15.54,224.9,17.90,-10.97,-11.01
2016-07-28 03:00,5.57,275.5,18.02,-5.55,0.54
2016-07-28 04:00,4.11,16.1,17.83,1.14,3.95
2016-07-28 05:00,9.97,217.2,17.64,-6.02,-7.95
2016-07-28 06:00,11.73,204.5,17.45,-4.87,-10.67
2016-07-28 07:00,13.79,240.4,17.39,-11.98,-6.82
2016-07-28 08:00,14.96,262.5,17.67,-14.83,-1.95
2016-07-28 09:00,19.94,271.3,17.17,-19.94,0.46
2016-07-28 10:00,20.24,263.9,17.26,-20.12,-2.14
2016-07-28 11:00,22.29,298.0,18.15,-19.68,10.48
2016-07-28 12:00,22.29,291.7,18.12,-20.71,8.24
2016-07-28 13:00,9.09,263.2,18.24,-9.03,-1.07
2016-07-28 14:00,14.37,249.9,17.71,-13.49,-4.95
2016-07-28 15:00,2.93,204.2,17.77,-1.20,-2.68
2016-07-28 16:00,5.28,189.0,18.37,-0.83,-5.21
2016-07-28 17:00,2.05,292.8,18.09,-1.89,0.79
2016-07-28 18:00,4.99,240.0,17.52,-4.32,-2.49
2016-07-28 19:00,11.73,233.3,17.33,-9.41,-7.00
2016-07-28 20:00,17.01,244.9,17.10,-15.41,-7.20
2016-07-28 21:00,19.06,270.3,18.88,-19.06,0.09
2016-07-28 22:00,23.17,251.6,17.93,-21.99,-7.31
2016-07-28 23:00,22.58,283.3,18.66,-21.98,5.18
2016-07-29 00:00,23.46,260.4,18.78,-23.14,-3.91
2016-07-29 01:00,27.86,263.9,17.52,-27.71,-2.95
2016-07-29 02:00,19.94,243.2,18.75,-17.80,-9.00
2016-07-29 03:00,18.77,249.9,17.29,-17.62,-6.46
2016-07-29 04:00,16.42,222.8,18.28,-11.16,-12.05
2016-07-29 05:00,14.08,247.8,18.50,-13.03,-5.33
2016-07-29 06:00,15.54,269.9,18.78,-15.54,-0.03
2016-07-29 07:00,12.32,259.4,18.24,-12.11,-2.27
2016-07-29 08:00,17.30,267.4,18.21,-17.29,-0.77
2016-07-29 09:00,19.06,283.3,18.72,-18.56,4.37
2016-07-29 10:00,20.53,304.0,18.37,-17.02,11.48
2016-07-29 11:00,25.52,295.9,18.28,-22.95,11.16
2016-07-29 12:00,16.42,273.8,18.18,-16.39,1.08
2016-07-29 13:00,27.86,288.5,18.02,-26.42,8.86
2016-07-29 14:00,22.00,269.9,18.05,-22.00,-0.04
2016-07-29 15:00,14.37,228.4,17.99,-10.75,-9.54
2016-07-29 16:00,17.30,227.0,17.80,-12.66,-11.80
2016-07-29 17:00,14.37,245.6,17.71,-13.09,-5.93
2016-07-29 18:00,14.37,241.1,17.39,-12.58,-6.95
2016-07-29 19:00,9.97,277.3,17.67,-9.89,1.27
2016-07-29 20:00,19.06,239.7,16.35,-16.45,-9.63
2016-07-29 21:00,22.00,246.3,17.80,-20.15,-8.82
2016-07-29 22:00,24.64,246.3,17.77,-22.57,-9.88
2016-07-29 23:00,24.34,267.8,17.71,-24.33,-0.94
2016-07-30 00:00,26.40,301.9,17.20,-22.41,13.95
2016-07-30 01:00,12.03,312.4,17.86,-8.87,8.12
2016-07-30 02:00,9.39,221.7,17.39,-6.25,-7.00
2016-07-30 03:00,4.69,20.3,17.80,1.63,4.40
2016-07-30 04:00,4.40,100.1,17.39,4.33,-0.77